| time (UTC) | temp C | wind direction | speed KPH | gust KPH | rain 1hr cm | rain 24hr cm | rain mn cm | humidity % | barometer mb |
| 20260510213031 | 18 | 265 | 12.9 | 27.4 | 0.00 | 0.00 | 0.00 | 54 | 1021.8 |
| 20260510210030 | 16 | 293 | 9.7 | 27.4 | 0.00 | 0.00 | 0.00 | 58 | 1021.9 |
| 20260510204531 | 16 | 300 | 14.5 | 33.8 | 0.00 | 0.00 | 0.00 | 57 | 1021.6 |
| 20260510201531 | 18 | 302 | 14.5 | 25.7 | 0.00 | 0.00 | 0.00 | 54 | 1020.7 |
| 20260510200105 | 18 | 296 | 11.3 | 22.5 | 0.00 | 0.00 | 0.00 | 54 | 1020.7 |
| 20260510194608 | 18 | 297 | 11.3 | 32.2 | 0.00 | 0.00 | 0.00 | 54 | 1020.8 |
| 20260510193030 | 18 | 299 | 11.3 | 25.7 | 0.00 | 0.00 | 0.00 | 55 | 1020.5 |
| 20260510190028 | 19 | 316 | 9.7 | 20.9 | 0.00 | 0.00 | 0.00 | 55 | 1020.2 |
| 20260510184541 | 20 | 297 | 8.0 | 20.9 | 0.00 | 0.00 | 0.00 | 55 | 1020.2 |
| 20260510183042 | 19 | 310 | 8.0 | 19.3 | 0.00 | 0.00 | 0.00 | 55 | 1020.1 |
| 20260510181531 | 19 | 296 | 11.3 | 20.9 | 0.00 | 0.00 | 0.00 | 55 | 1019.9 |
| 20260510180029 | 19 | 282 | 8.0 | 25.7 | 0.00 | 0.00 | 0.00 | 57 | 1019.9 |
| 20260510174531 | 18 | 322 | 4.8 | 19.3 | 0.00 | 0.00 | 0.00 | 57 | 1019.9 |
| 20260510173042 | 18 | 339 | 3.2 | 11.3 | 0.00 | 0.00 | 0.00 | 58 | 1020.0 |
| 20260510170030 | 17 | 282 | 1.6 | 6.4 | 0.00 | 0.00 | 0.00 | 65 | 1019.9 |
| 20260510164530 | 16 | 27 | 1.6 | 8.0 | 0.00 | 0.00 | 0.00 | 65 | 1020.0 |
| 20260510163030 | 16 | 320 | 0.0 | 4.8 | 0.00 | 0.00 | 0.00 | 66 | 1019.9 |
| 20260510161530 | 15 | 67 | 0.0 | 3.2 | 0.00 | 0.00 | 0.00 | 68 | 1019.8 |
| 20260510160108 | 14 | 54 | 0.0 | 4.8 | 0.00 | 0.00 | 0.00 | 71 | 1019.9 |
| 20260510154532 | 13 | 17 | 1.6 | 4.8 | 0.00 | 0.00 | 0.00 | 74 | 1019.6 |
| 20260510153103 | 13 | 216 | 0.0 | 1.6 | 0.00 | 0.00 | 0.00 | 76 | 1019.5 |
| 20260510151530 | 12 | 176 | 0.0 | 1.6 | 0.00 | 0.00 | 0.00 | 79 | 1019.5 |
| 20260510150029 | 11 | 220 | 0.0 | 1.6 | 0.00 | 0.00 | 0.00 | 81 | 1019.6 |
| 20260510144530 | 11 | 179 | 1.6 | 4.8 | 0.00 | 0.00 | 0.00 | 83 | 1019.3 |
| 20260510143031 | 10 | 145 | 1.6 | 8.0 | 0.00 | 0.00 | 0.00 | 83 | 1019.1 |
| 20260510140029 | 8 | 176 | 3.2 | 6.4 | 0.00 | 0.00 | 0.00 | 84 | 1018.9 |
| 20260510134528 | 7 | 166 | 4.8 | 8.0 | 0.00 | 0.00 | 0.00 | 86 | 1019.1 |
| 20260510133035 | 6 | 195 | 3.2 | 6.4 | 0.00 | 0.00 | 0.00 | 87 | 1019.1 |
| 20260510131529 | 6 | 133 | 3.2 | 6.4 | 0.00 | 0.00 | 0.00 | 87 | 1019.0 |
| 20260510124530 | 6 | 136 | 1.6 | 6.4 | 0.00 | 0.00 | 0.00 | 85 | 1018.9 |
| 20260510123118 | 6 | 170 | 3.2 | 6.4 | 0.00 | 0.00 | 0.00 | 85 | 1019.2 |
| 20260510121529 | 5 | 156 | 4.8 | 11.3 | 0.00 | 0.00 | 0.00 | 87 | 1019.3 |
| 20260510120105 | 5 | 172 | 3.2 | 8.0 | 0.00 | 0.00 | 0.00 | 86 | 1019.0 |
| 20260510114531 | 5 | 164 | 1.6 | 6.4 | 0.00 | 0.00 | 0.00 | 84 | 1019.1 |
| 20260510113030 | 6 | 169 | 1.6 | 6.4 | 0.00 | 0.00 | 0.00 | 84 | 1019.0 |
| 20260510111531 | 5 | 142 | 3.2 | 8.0 | 0.00 | 0.00 | 0.00 | 82 | 1018.8 |
| 20260510110033 | 6 | 171 | 1.6 | 6.4 | 0.00 | 0.00 | 0.00 | 80 | 1018.8 |
| 20260510104528 | 7 | 177 | 3.2 | 9.7 | 0.00 | 0.00 | 0.00 | 80 | 1019.1 |
| 20260510101528 | 7 | 155 | 3.2 | 9.7 | 0.00 | 0.00 | 0.00 | 79 | 1019.0 |
| 20260510094531 | 7 | 158 | 3.2 | 6.4 | 0.00 | 0.00 | 0.00 | 78 | 1019.0 |
| 20260510093034 | 7 | 161 | 4.8 | 9.7 | 0.00 | 0.00 | 0.00 | 78 | 1019.0 |
| 20260510091529 | 7 | 164 | 4.8 | 8.0 | 0.00 | 0.00 | 0.00 | 79 | 1019.1 |
| 20260510090034 | 7 | 157 | 3.2 | 4.8 | 0.00 | 0.00 | 0.00 | 78 | 1019.3 |
| 20260510084534 | 7 | 171 | 1.6 | 6.4 | 0.00 | 0.00 | 0.00 | 76 | 1019.4 |
| 20260510083145 | 8 | 175 | 3.2 | 6.4 | 0.00 | 0.00 | 0.00 | 74 | 1019.6 |
| 20260510081530 | 8 | 153 | 3.2 | 6.4 | 0.00 | 0.00 | 0.00 | 71 | 1019.6 |
| 20260510074533 | 9 | 169 | 6.4 | 9.7 | 0.00 | 0.00 | 0.00 | 69 | 1019.9 |
| 20260510070030 | 10 | 160 | 3.2 | 6.4 | 0.00 | 0.00 | 0.00 | 66 | 1019.9 |
| 20260510064532 | 10 | 158 | 4.8 | 9.7 | 0.00 | 0.00 | 0.00 | 66 | 1019.8 |
| 20260510061529 | 10 | 161 | 4.8 | 9.7 | 0.00 | 0.00 | 0.00 | 66 | 1019.7 |
| 20260510054528 | 10 | 169 | 4.8 | 8.0 | 0.00 | 0.00 | 0.00 | 65 | 1019.6 |
| 20260510053031 | 11 | 158 | 1.6 | 6.4 | 0.00 | 0.00 | 0.00 | 64 | 1019.6 |
| 20260510051529 | 11 | 160 | 4.8 | 8.0 | 0.00 | 0.00 | 0.00 | 64 | 1019.5 |
| 20260510050032 | 13 | 163 | 3.2 | 8.0 | 0.00 | 0.00 | 0.00 | 61 | 1019.4 |
| 20260510044530 | 13 | 165 | 6.4 | 11.3 | 0.00 | 0.00 | 0.00 | 63 | 1019.3 |
| 20260510043034 | 13 | 182 | 6.4 | 9.7 | 0.00 | 0.00 | 0.00 | 65 | 1019.3 |
| 20260510041607 | 13 | 171 | 3.2 | 6.4 | 0.00 | 0.00 | 0.00 | 67 | 1019.2 |
| 20260510040031 | 15 | 154 | 3.2 | 8.0 | 0.00 | 0.00 | 0.00 | 66 | 1019.0 |
| 20260510034606 | 16 | 161 | 1.6 | 6.4 | 0.00 | 0.00 | 0.00 | 64 | 1018.9 |
| 20260510033031 | 17 | 177 | 4.8 | 8.0 | 0.00 | 0.00 | 0.00 | 64 | 1018.9 |
| 20260510031529 | 18 | 168 | 1.6 | 4.8 | 0.00 | 0.00 | 0.00 | 62 | 1018.8 |
| 20260510024604 | 19 | 143 | 1.6 | 4.8 | 0.00 | 0.00 | 0.00 | 55 | 1018.9 |
| 20260510023030 | 20 | 125 | 3.2 | 4.8 | 0.00 | 0.00 | 0.00 | 51 | 1019.0 |
| 20260510021541 | 21 | 98 | 0.0 | 3.2 | 0.00 | 0.00 | 0.00 | 48 | 1018.9 |
| 20260510020032 | 21 | 45 | 0.0 | 3.2 | 0.00 | 0.00 | 0.00 | 43 | 1019.0 |
| 20260510014531 | 22 | 55 | 0.0 | 6.4 | 0.00 | 0.00 | 0.00 | 39 | 1019.1 |
| 20260510011531 | 23 | 305 | 0.0 | 3.2 | 0.00 | 0.00 | 0.00 | 35 | 1019.4 |
| 20260510010146 | 23 | 287 | 3.2 | 9.7 | 0.00 | 0.00 | 0.00 | 33 | 1019.4 |
| 20260510004530 | 24 | 285 | 4.8 | 11.3 | 0.00 | 0.00 | 0.00 | 34 | 1019.4 |
| 20260510003147 | 23 | 300 | 4.8 | 12.9 | 0.00 | 0.00 | 0.00 | 35 | 1019.5 |
| 20260510001607 | 23 | 325 | 6.4 | 12.9 | 0.00 | 0.00 | 0.00 | 36 | 1019.5 |
| 20260510000031 | 23 | 346 | 8.0 | 16.1 | 0.00 | 0.00 | 0.00 | 36 | 1019.5 |
| 20260509233031 | 23 | 338 | 8.0 | 16.1 | 0.00 | 0.00 | 0.00 | 37 | 1019.9 |
| 20260509231543 | 23 | 322 | 6.4 | 16.1 | 0.00 | 0.00 | 0.00 | 38 | 1020.2 |
| 20260509230031 | 23 | 326 | 8.0 | 20.9 | 0.00 | 0.00 | 0.00 | 39 | 1020.4 |
| 20260509224532 | 23 | 328 | 6.4 | 16.1 | 0.00 | 0.00 | 0.00 | 39 | 1020.7 |
| 20260509223031 | 23 | 319 | 6.4 | 17.7 | 0.00 | 0.00 | 0.00 | 39 | 1020.9 |
| 20260509221531 | 22 | 327 | 8.0 | 17.7 | 0.00 | 0.00 | 0.00 | 40 | 1021.1 |
| 20260509220031 | 22 | 316 | 8.0 | 22.5 | 0.00 | 0.00 | 0.00 | 40 | 1021.2 |